Location: Hains Lake
(37.8540°N, 99.8578°W)
Time: 07:34:50
(UTC+00:00)

Vanguard 3 - Pass Details

Date: 26 April 2021
Orbit: 508 x 3262 km, 33.3° (Epoch: 09 May)

Event Time Altitude Azimuth Distance (km) Brightness Sun altitude
Rises 04:43:03 0° 227° (SW) 5,892 11.5 -32.0°
Reaches altitude 10° 04:48:02 10° 220° (SW) 4,398 10.7 -32.5°
Enters shadow 04:49:51 14° 216° (SW) 3,853 10.3 -32.7°
